Regional Weather Roundup
Issued by NWS

Home | Current Version | Previous Version | Graphics & Text | Print | Product List | Glossary On
Versions: 1 2 3 4 5 6 7 8 9 10 11 12 13 14 15 16 17 18 19 20 21 22 23 24 25 26 27 28 29 30 31 32 33 34 35 36 37 38 39 40 41 42 43 44 45 46 47 48 49 50
000
ASUS43 KBIS 050810
RWRND

NORTH DAKOTA REGIONAL WEATHER ROUNDUP
NATIONAL WEATHER SERVICE BISMARCK ND
300 AM CDT THU MAY 05 2016

NOTE: "FAIR" INDICATES FEW OR NO CLOUDS BELOW 12,000 FEET WITH NO
SIGNIFICANT WEATHER AND/OR OBSTRUCTIONS TO VISIBILITY.


NDZ001>003-009>011-017-050900-
NORTHWEST NORTH DAKOTA

CITY           SKY/WX    TMP DP  RH WIND       PRES   REMARKS
WILLISTON      CLEAR     52  41  66 CALM      29.86S
MINOT          CLEAR     66  41  40 SW14      29.85S
MINOT AFB      CLEAR     59  43  55 SW10      29.83S
$$

NDZ018>021-031>035-040>046-050900-
SOUTHWEST NORTH DAKOTA

CITY           SKY/WX    TMP DP  RH WIND       PRES   REMARKS
BISMARCK       CLEAR     61  45  55 SW7       29.93F
DICKINSON      CLEAR     55  42  61 S16       29.92S
GARRISON         N/A     54  42  64 SW3       29.90S
HETTINGER ARPT CLEAR     55  42  61 S9        29.98F
$$

NDZ004>008-012>016-024-026-027-054-050900-
NORTHEAST NORTH DAKOTA

CITY           SKY/WX    TMP DP  RH WIND       PRES   REMARKS
GRAND FORKS    PTCLDY    53  32  44 S9        29.85F
GRND FRKS AFB  PTCLDY    57  32  38 SW12      29.85F
DEVILS LAKE    CLEAR     56  44  64 SW10      29.87F
$$

NDZ022-023-025-028>030-036>039-047>053-050900-
SOUTHEAST NORTH DAKOTA

CITY           SKY/WX    TMP DP  RH WIND       PRES   REMARKS
FARGO          PTCLDY    54  30  40 S10       29.91F
JAMESTOWN      CLEAR     52  40  63 SW7       29.91F
$$





USA.gov is the U.S. government's official web portal to all federal, state and local government web resources and services.